This demonstration page uses our WeatherBlox Daily Observations layout. Learn more.

Left ArrowRight Arrow

53.62937, 11.41316

Hourly Observations for January 12, 2023

Temp ( °F °C ) Dew Point ( °F °C ) Humidity (%) Winds ( mph kmh ) Pressure ( in mb ) Visibility ( mi km ) Precip ( " mm )
12:20 am 00:20 Mostly Cloudy 45 7 39 4 81 81 VRB 9 15 29.71 1006 6 10 0.00 0.00
12:50 am 00:50 Cloudy 45 7 41 5 87 87 SSW 8 13 29.71 1006 6 10 0.00 0.00
1:20 am 01:20 Cloudy 45 7 41 5 87 87 SSW 7 11 29.68 1005 6 10 0.00 0.00
1:50 am 01:50 Cloudy 45 7 41 5 87 87 VRB 7 11 29.68 1005 6 10 0.00 0.00
2:20 am 02:20 Mostly Cloudy 45 7 41 5 87 87 VRB 7 11 29.68 1005 6 10 0.00 0.00
2:50 am 02:50 Mostly Cloudy 46 8 41 5 81 81 VRB 9 15 29.68 1005 6 10 0.00 0.00
3:20 am 03:20 Cloudy 41 5 39 4 93 93 W 13 20 29.68 1005 3 5 0.00 0.00
3:50 am 03:50 Cloudy 43 6 41 5 93 93 W 10 17 29.68 1005 4 7 0.00 0.00
4:20 am 04:20 Cloudy 43 6 41 5 93 93 VRB 3 6 29.68 1005 6 10 0.00 0.00
4:50 am 04:50 Mostly Cloudy 45 7 43 6 93 93 VRB 5 7 29.68 1005 6 10 0.00 0.00
5:20 am 05:20 Mostly Cloudy 45 7 43 6 93 93 SSW 6 9 29.65 1004 6 10 0.00 0.00
5:50 am 05:50 Cloudy 46 8 41 5 81 81 VRB 7 11 29.65 1004 6 10 0.00 0.00
6:20 am 06:20 Cloudy 45 7 41 5 87 87 SSW 7 11 29.65 1004 6 10 0.00 0.00
6:50 am 06:50 Cloudy 46 8 41 5 81 81 SSW 7 11 29.62 1003 6 10 0.00 0.00
7:20 am 07:20 Cloudy 45 7 43 6 93 93 VRB 6 9 29.62 1003 6 10 0.00 0.00
7:50 am 07:50 Cloudy with Light Rain 45 7 43 6 93 93 SSW 8 13 29.59 1002 6 10 0.00 0.00
8:20 am 08:20 Cloudy with Light Rain 46 8 45 7 93 93 SSW 8 13 29.59 1002 6 10 0.00 0.00
8:50 am 08:50 Cloudy with Light Rain 46 8 45 7 93 93 VRB 8 13 29.56 1001 6 10 0.00 0.00
9:20 am 09:20 Cloudy with Light Rain 46 8 45 7 93 93 VRB 8 13 29.56 1001 6 10 0.00 0.00
9:50 am 09:50 Cloudy with Light Rain 46 8 45 7 93 93 VRB 8 13 29.53 1000 6 10 0.00 0.00
10:20 am 10:20 Cloudy with Light Rain 46 8 43 6 87 87 VRB 12 19 29.53 1000 6 9 0.00 0.00
10:50 am 10:50 Cloudy with Light Rain 46 8 45 7 93 93 VRB 10 17 29.50 999 2 4 0.00 0.00
11:20 am 11:20 Cloudy with Light Rain 46 8 45 7 93 93 VRB 12 19 29.50 999 3 5 0.00 0.00
11:50 am 11:50 Cloudy with Light Rain 48 9 45 7 87 87 SW 10 17 29.50 999 6 10 0.00 0.00
12:20 pm 12:20 Cloudy with Light Rain 48 9 46 8 93 93 VRB 12 19 29.50 999 5 8 0.00 0.00
12:50 pm 12:50 Cloudy with Light Rain 48 9 46 8 93 93 VRB 9 15 29.50 999 4 7 0.00 0.00
1:20 pm 13:20 Cloudy 50 10 46 8 87 87 VRB 12 19 29.50 999 6 10 0.00 0.00
1:50 pm 13:50 Cloudy with Light Rain 50 10 48 9 93 93 SW 10 17 29.50 999 6 10 0.00 0.00
2:20 pm 14:20 Mostly Cloudy 52 11 48 9 87 87 VRB 14 22 29.50 999 6 10 0.00 0.00
2:50 pm 14:50 Mostly Cloudy with Light Rain 52 11 46 8 82 82 W 16 26 29.50 999 6 10 0.00 0.00
3:20 pm 15:20 Mostly Cloudy 50 10 45 7 82 82 W 17 28 29.53 1000 6 10 0.00 0.00
3:50 pm 15:50 Cloudy 50 10 45 7 82 82 W 13 20 29.53 1000 6 10 0.00 0.00
4:20 pm 16:20 Cloudy 48 9 45 7 87 87 W 8 13 29.56 1001 5 8 0.00 0.00
4:50 pm 16:50 Mostly Cloudy with Light Rain 48 9 46 8 93 93 W 8 13 29.56 1001 6 10 0.00 0.00
5:20 pm 17:20 Cloudy with Light Rain 48 9 46 8 93 93 WSW 6 9 29.56 1001 4 7 0.00 0.00
5:50 pm 17:50 Mostly Cloudy 48 9 46 8 93 93 VRB 2 4 29.56 1001 6 10 0.00 0.00
6:20 pm 18:20 Mostly Cloudy with Light Rain 48 9 46 8 93 93 S 3 6 29.56 1001 4 7 0.00 0.00
6:50 pm 18:50 Mostly Cloudy 48 9 48 9 100 100 SSW 5 7 29.56 1001 6 10 0.00 0.00
7:20 pm 19:20 Mostly Cloudy with Light Rain 50 10 48 9 93 93 VRB 6 9 29.53 1000 6 10 0.00 0.00
7:50 pm 19:50 Cloudy with Light Rain 50 10 48 9 93 93 VRB 6 9 29.53 1000 6 10 0.00 0.00
8:20 pm 20:20 Cloudy with Rain 50 10 48 9 93 93 SSW 6 9 29.53 1000 3 4 0.00 0.00
8:50 pm 20:50 Cloudy with Light Rain 50 10 48 9 93 93 SSW 7 11 29.50 999 6 10 0.00 0.00
9:20 pm 21:20 Cloudy 50 10 48 9 93 93 SSW 7 11 29.50 999 3 5 0.00 0.00
9:50 pm 21:50 Cloudy 50 10 48 9 93 93 VRB 7 11 29.50 999 5 8 0.00 0.00
10:20 pm 22:20 Cloudy 50 10 48 9 93 93 VRB 7 11 29.50 999 6 10 0.00 0.00
10:50 pm 22:50 Cloudy 50 10 48 9 93 93 SW 9 15 29.50 999 6 10 0.00 0.00
11:20 pm 23:20 Cloudy 50 10 48 9 93 93 WSW 9 15 29.50 999 6 10 0.00 0.00
11:50 pm 23:50 Cloudy 50 10 48 9 93 93 VRB 9 15 29.50 999 6 10 0.00 0.00

Powered by AerisWeather